Tracking 31027 objects as of 19-Jul-2025
HD Live streaming from Space Station
objects crossing your sky now

USA 17

Track USA 17 now!
10-day predictions
USA 17 is classified as:


NORAD ID: 16625
Int'l Code: 1986-014F
Perigee: 402.5 km
Apogee: 1,607.7 km
Inclination: 63.3 °
Period: 105.1 minutes
Semi major axis: 7376 km
RCS: Unknown
Launch date: February 9, 1986
Source: United States (US)
Launch site: AIR FORCE WESTERN TEST RANGE (AFWTR)
Your satellite tracking list
FENGYUN 1C DEB
Track 1 satellite(s)




NASA's NSSDC Master Catalog

Two Line Element Set (TLE):
1 16625U 86014F   25199.52559304  .00004888  00000-0  43050-3 0  9991
2 16625  63.2998 293.4930 0816947 109.6168 259.4862 13.70454831297027
Source of the keplerian elements: AFSPC